Location: Azul
(36.7830°S, 59.8500°W)
Time: 09:07:26
(UTC-03:00)

DOVE 4 - Pass Details

Date: 24 October 2021
Orbit: 588 x 799 km, 97.8° (Epoch: 07 December)

Event Time Altitude Azimuth Distance (km) Brightness Sun altitude
Exits shadow 01:14:16 13° 210° (SSW) 2,156 ? -40.9°
Drops below altitude 10° 01:14:56 10° 207° (SSW) 2,395 ? -40.8°
Sets 01:17:27 0° 200° (SSW) 3,340 ? -40.8°
